DLH174 EGLL-LROP

Flight info

Callsign DLH174
Flight time 3h 26m
Altitude 39000
Route BPK6J BPK Q295 BRAIN M197 REDFA DCT TACHA DCT SUSET DCT OTMEC DCT KUMER DCT OMELO DCT OMIFU DCT TIBLA DCT MAKAL DCT PITOK DCT PERIT DCT BADOR DCT DENAK DENAK1U
Aircraft A359/H-SDE2E3GHIJ3J4J5LM1ORWXY/LB1D1

Departure

Time 2026-04-30 14:13
Airport London Heathrow Airport (EGLL)

Arrival

Time 2026-04-30 17:39
Airport Bucharest Henri Coandă International Airport (LROP)
Time Latitude Longitude Altitude Speed Heading
2026-04-30 13:31 51.47144 -0.47491 99 ft 0 kts 269°
2026-04-30 13:57 51.47145 -0.47466 97 ft 2 kts 262°
2026-04-30 13:57 51.47148 -0.47440 95 ft 2 kts 254°
2026-04-30 13:58 51.47154 -0.47415 95 ft 2 kts 242°
2026-04-30 13:58 51.47176 -0.47376 94 ft 2 kts 212°
2026-04-30 13:58 51.47190 -0.47364 95 ft 2 kts 199°
2026-04-30 13:59 51.47206 -0.47357 93 ft 2 kts 189°
2026-04-30 13:59 51.47221 -0.47354 95 ft 2 kts 183°
2026-04-30 13:59 51.47227 -0.47354 95 ft 0 kts 182°
2026-04-30 14:03 51.47225 -0.47354 94 ft 1 kts 182°
2026-04-30 14:03 51.47197 -0.47355 95 ft 7 kts 181°
2026-04-30 14:03 51.47131 -0.47355 96 ft 12 kts 180°
2026-04-30 14:04 51.47035 -0.47354 96 ft 16 kts 180°
2026-04-30 14:04 51.46911 -0.47353 94 ft 19 kts 180°
2026-04-30 14:04 51.46791 -0.47351 89 ft 16 kts 178°
2026-04-30 14:04 51.46697 -0.47350 90 ft 13 kts 192°
2026-04-30 14:05 51.46655 -0.47484 89 ft 16 kts 268°
2026-04-30 14:05 51.46653 -0.47688 87 ft 20 kts 270°
2026-04-30 14:05 51.46655 -0.47924 91 ft 22 kts 272°
2026-04-30 14:05 51.46657 -0.48168 96 ft 22 kts 270°
2026-04-30 14:06 51.46657 -0.48355 97 ft 15 kts 266°
2026-04-30 14:06 51.46654 -0.48647 95 ft 0 kts 270°
2026-04-30 14:07 51.46654 -0.48649 96 ft 1 kts 270°
2026-04-30 14:08 51.46622 -0.48752 94 ft 8 kts 206°
2026-04-30 14:08 51.46612 -0.48758 94 ft 0 kts 200°
2026-04-30 14:10 51.46609 -0.48760 91 ft 2 kts 200°
2026-04-30 14:10 51.46576 -0.48779 93 ft 8 kts 197°
2026-04-30 14:10 51.46513 -0.48768 94 ft 10 kts 155°
2026-04-30 14:11 51.46479 -0.48684 96 ft 8 kts 93°
2026-04-30 14:11 51.46479 -0.48664 95 ft 0 kts 92°
2026-04-30 14:12 51.46477 -0.48604 95 ft 32 kts 92°
2026-04-30 14:12 51.46479 -0.48164 92 ft 87 kts 88°
2026-04-30 14:13 51.46469 -0.46227 424 ft 147 kts 90°
2026-04-30 14:13 51.46432 -0.44580 1338 ft 157 kts 93°
2026-04-30 14:13 51.46358 -0.42773 2168 ft 170 kts 95°
2026-04-30 14:13 51.46363 -0.40894 2806 ft 173 kts 84°
2026-04-30 14:14 51.47005 -0.39217 3423 ft 187 kts 46°
2026-04-30 14:14 51.48144 -0.37976 3852 ft 204 kts 40°
2026-04-30 14:14 51.49293 -0.36539 4158 ft 220 kts 47°
2026-04-30 14:14 51.50444 -0.34771 4470 ft 239 kts 52°
2026-04-30 14:15 51.51523 -0.32640 4851 ft 252 kts 65°
2026-04-30 14:15 51.52240 -0.30067 5410 ft 255 kts 75°
2026-04-30 14:15 51.52842 -0.27356 6037 ft 261 kts 76°
2026-04-30 14:15 51.53453 -0.24562 6638 ft 270 kts 75°
2026-04-30 14:16 51.54381 -0.21884 7194 ft 282 kts 53°
2026-04-30 14:16 51.55989 -0.20042 7922 ft 289 kts 29°
2026-04-30 14:16 51.57842 -0.18768 8662 ft 292 kts 26°
2026-04-30 14:16 51.59777 -0.17677 9327 ft 297 kts 20°
2026-04-30 14:17 51.61770 -0.16767 10027 ft 299 kts 19°
2026-04-30 14:17 51.63782 -0.15860 10581 ft 304 kts 20°
2026-04-30 14:17 51.65866 -0.14905 10856 ft 318 kts 20°
2026-04-30 14:17 51.68043 -0.13903 11132 ft 332 kts 20°
2026-04-30 14:18 51.70298 -0.12846 11447 ft 341 kts 20°
2026-04-30 14:18 51.72482 -0.11359 11870 ft 341 kts 36°
2026-04-30 14:18 51.75322 -0.05579 12814 ft 331 kts 76°
2026-04-30 14:19 51.76237 0.01702 13724 ft 333 kts 86°
2026-04-30 14:19 51.76505 0.05433 14185 ft 336 kts 87°
2026-04-30 14:19 51.76745 0.09148 14624 ft 338 kts 87°
2026-04-30 14:20 51.76997 0.12939 15059 ft 341 kts 86°
2026-04-30 14:20 51.77273 0.16803 15515 ft 344 kts 86°
2026-04-30 14:20 51.77876 0.24473 16395 ft 349 kts 85°
2026-04-30 14:21 51.78195 0.28364 16835 ft 352 kts 85°
2026-04-30 14:21 51.78517 0.32299 17280 ft 354 kts 85°
2026-04-30 14:21 51.79154 0.40257 18140 ft 360 kts 86°
2026-04-30 14:22 51.79472 0.44281 18564 ft 362 kts 86°
2026-04-30 14:22 51.80115 0.52408 19356 ft 365 kts 86°
2026-04-30 14:22 51.80437 0.56485 19784 ft 366 kts 85°
2026-04-30 14:23 51.81134 0.64672 20565 ft 371 kts 81°
2026-04-30 14:23 51.82265 0.72801 21367 ft 375 kts 79°
2026-04-30 14:24 51.83538 0.81061 22169 ft 378 kts 79°
2026-04-30 14:24 51.84199 0.85136 22565 ft 380 kts 77°
2026-04-30 14:25 51.85718 0.93376 23374 ft 384 kts 76°
2026-04-30 14:25 51.87290 1.01696 24104 ft 388 kts 76°
2026-04-30 14:26 51.88842 1.10131 24777 ft 393 kts 76°
2026-04-30 14:26 51.89611 1.14388 25091 ft 395 kts 77°
2026-04-30 14:26 51.91151 1.22969 25788 ft 399 kts 77°
2026-04-30 14:27 51.91914 1.27246 26114 ft 401 kts 77°
2026-04-30 14:27 51.92697 1.31642 26473 ft 403 kts 77°
2026-04-30 14:27 51.93467 1.35965 26836 ft 405 kts 77°
2026-04-30 14:28 51.95035 1.44806 27548 ft 410 kts 77°
2026-04-30 14:28 51.95821 1.49251 27936 ft 412 kts 77°
2026-04-30 14:28 51.96611 1.53735 28329 ft 414 kts 77°
2026-04-30 14:28 51.97404 1.58243 28726 ft 417 kts 77°
2026-04-30 14:29 51.98990 1.67290 29543 ft 422 kts 77°
2026-04-30 14:29 52.00296 1.75037 30254 ft 426 kts 78°
2026-04-30 14:30 52.02673 1.90719 31551 ft 434 kts 79°
2026-04-30 14:31 52.04126 2.00289 32360 ft 439 kts 78°
2026-04-30 14:31 52.05606 2.09975 33140 ft 443 kts 78°
2026-04-30 14:31 52.06352 2.14860 33523 ft 446 kts 78°
2026-04-30 14:32 52.07839 2.24645 34278 ft 451 kts 78°
2026-04-30 14:32 52.08574 2.29613 34602 ft 452 kts 80°
2026-04-30 14:32 52.09037 2.34665 35029 ft 449 kts 87°
2026-04-30 14:33 52.09186 2.38004 35317 ft 448 kts 89°
2026-04-30 14:33 52.09354 2.48135 36174 ft 447 kts 91°
2026-04-30 14:33 52.09366 2.53195 36611 ft 447 kts 92°
2026-04-30 14:34 52.09370 2.58257 37043 ft 447 kts 91°
2026-04-30 14:34 52.09376 2.63317 37484 ft 447 kts 91°
2026-04-30 14:34 52.09388 2.68355 37935 ft 446 kts 91°
2026-04-30 14:34 52.09405 2.73409 38367 ft 446 kts 91°
2026-04-30 14:35 52.09444 2.83479 39150 ft 446 kts 91°
2026-04-30 14:35 52.09463 2.88526 39272 ft 443 kts 91°
2026-04-30 14:36 52.09495 2.98434 39286 ft 436 kts 91°
2026-04-30 14:36 52.09515 3.08202 39290 ft 435 kts 91°
2026-04-30 14:37 52.09526 3.18040 39295 ft 434 kts 91°
2026-04-30 14:37 52.09530 3.27855 39299 ft 434 kts 91°
2026-04-30 14:38 52.09524 3.37658 39299 ft 433 kts 91°
2026-04-30 14:38 52.09511 3.47458 39299 ft 433 kts 91°
2026-04-30 14:39 52.09490 3.57243 39298 ft 433 kts 91°
2026-04-30 14:39 52.09461 3.67022 39295 ft 432 kts 91°
2026-04-30 14:40 52.09402 3.81650 39295 ft 431 kts 91°
2026-04-30 14:40 52.09353 3.91402 39297 ft 430 kts 91°
2026-04-30 14:41 52.09296 4.01134 39306 ft 430 kts 91°
2026-04-30 14:41 52.09231 4.10855 39310 ft 429 kts 91°
2026-04-30 14:42 52.09158 4.20544 39312 ft 428 kts 91°
2026-04-30 14:42 52.09077 4.30219 39315 ft 427 kts 91°
2026-04-30 14:43 52.08988 4.39874 39318 ft 426 kts 91°
2026-04-30 14:43 52.08894 4.49449 39319 ft 426 kts 91°
2026-04-30 14:44 52.08789 4.59074 39320 ft 426 kts 91°
2026-04-30 14:44 52.08678 4.68699 39319 ft 425 kts 91°
2026-04-30 14:45 52.08560 4.78321 39323 ft 425 kts 91°
2026-04-30 14:45 52.08433 4.87928 39327 ft 425 kts 91°
2026-04-30 14:46 52.08298 4.97535 39326 ft 424 kts 91°
2026-04-30 14:46 52.08156 5.07066 39327 ft 424 kts 91°
2026-04-30 14:47 52.08007 5.16661 39333 ft 425 kts 91°
2026-04-30 14:47 52.07848 5.26284 39336 ft 425 kts 91°
2026-04-30 14:48 52.07683 5.35868 39339 ft 425 kts 91°
2026-04-30 14:48 52.07508 5.45480 39342 ft 425 kts 91°
2026-04-30 14:49 52.07326 5.55087 39346 ft 425 kts 91°
2026-04-30 14:49 52.07137 5.64686 39346 ft 425 kts 91°
2026-04-30 14:50 52.06840 5.79042 39347 ft 425 kts 91°
2026-04-30 14:51 52.05845 5.93385 39344 ft 426 kts 97°
2026-04-30 14:52 52.04542 6.07680 39350 ft 426 kts 97°
2026-04-30 14:52 52.03221 6.21958 39355 ft 426 kts 97°
2026-04-30 14:53 52.01904 6.36163 39366 ft 426 kts 97°
2026-04-30 14:54 52.00113 6.55151 39369 ft 425 kts 97°
2026-04-30 14:55 51.98751 6.69364 39371 ft 425 kts 97°
2026-04-30 14:56 51.96912 6.88276 39371 ft 425 kts 97°
2026-04-30 14:57 51.95509 7.02486 39373 ft 425 kts 97°
2026-04-30 14:58 51.93610 7.21425 39382 ft 426 kts 97°
2026-04-30 14:58 51.92165 7.35640 39392 ft 426 kts 97°
2026-04-30 15:00 51.89719 7.59291 39398 ft 427 kts 97°
2026-04-30 15:01 51.87725 7.78233 39402 ft 427 kts 97°
2026-04-30 15:01 51.86215 7.92375 39405 ft 427 kts 97°
2026-04-30 15:02 51.85192 8.01860 39408 ft 427 kts 97°
2026-04-30 15:03 51.82600 8.25554 39409 ft 428 kts 97°
2026-04-30 15:04 51.79969 8.49155 39410 ft 428 kts 97°
2026-04-30 15:06 51.77285 8.72784 39408 ft 428 kts 97°
2026-04-30 15:07 51.75101 8.91680 39412 ft 428 kts 97°
2026-04-30 15:08 51.72895 9.10503 39432 ft 428 kts 97°
2026-04-30 15:09 51.70083 9.34104 39418 ft 428 kts 97°
2026-04-30 15:10 51.67797 9.52959 39424 ft 428 kts 97°
2026-04-30 15:11 51.64323 9.81140 39429 ft 428 kts 97°
2026-04-30 15:13 51.61369 10.04646 39439 ft 428 kts 97°
2026-04-30 15:14 51.57162 10.37458 39438 ft 429 kts 97°
2026-04-30 15:17 51.50723 10.79419 39446 ft 433 kts 102°
2026-04-30 15:19 51.43544 11.16321 39452 ft 434 kts 102°
2026-04-30 17:39 44.57056 26.10375 323 ft 17 kts 264°
2026-04-30 17:41 44.56964 26.08528 323 ft 8 kts 340°
2026-04-30 17:42 44.57073 26.08527 324 ft 10 kts 357°
2026-04-30 17:42 44.57219 26.08376 326 ft 9 kts 261°
2026-04-30 17:43 44.57137 26.08251 325 ft 10 kts 218°